TURKSAT 4A

Last updated on Thu Sep 10 2026 00:02:58 GMT+0000 (Coordinated Universal Time)

1 39522U 14007A 26252.16618512 .00000125 00000+0 00000+0 0 9996 2 39522 0.0874 284.2872 0003739 319.3052 206.4682 1.00272237 45809
UTC large
Height (km)
Speed (km/s)
/
Latitude / Longitude
Inclination (degrees)
Orbital Period (minutes)
Azimuth
Elevation
Range (km)
Doppler Factor

Next 0 passes for location: London (51.5072 / 0.1276)

No passes found over London.
TURKSAT 4A